Change the Weather History Date:

Wednesday, November 6, 2013

  Actual Average Record
Temperature  
Mean Temperature 25 °F -  
Max Temperature 35 °F 37 °F 55 °F (2011)
Min Temperature 15 °F 23 °F 1 °F (2003)
Degree Days  
Heating Degree Days 40    
Moisture  
Dew Point 16 °F    
Average Humidity 72    
Maximum Humidity 93    
Minimum Humidity 44    
Precipitation  
Precipitation 0.00 in - - ()
Sea Level Pressure  
Sea Level Pressure 30.12 in    
Wind  
Wind Speed 2 mph (East)    
Max Wind Speed 5 mph    
Max Gust Speed -    
Visibility 10 miles    
Events      
Averages and records for this station are not official NWS values.
T = Trace of Precipitation, MM = Missing Value Source: NWS Daily Summary

Daily Weather History Graph

Daily Weather History Graph

Search for Another Location

Airport or City:

Trip Planner

Search our weather history database for the weather conditions in past years. The results will help you decide how hot, cold, wet, or windy it might be!

Date:

Astronomy

Nov. 06, 2013 Rise Set
Actual Time 7:19 AM CST 5:00 PM CST
Civil Twilight 6:46 AM CST 5:33 PM CST
Nautical Twilight 6:09 AM CST 6:10 PM CST
Astronomical Twilight 5:33 AM CST 6:46 PM CST
Moon 10:41 AM CST (11/6) 8:00 PM CST (11/6)
Length of Visible Light 10h 47m
Length of Day
9h 41m
Waxing Crescent, 14% of the Moon is Illuminated
Nov 6
Waxing Crescent
Nov 9
First Quarter
Nov 17
Full
Nov 25
Last Quarter
Dec 2
New

Hourly Weather History & Observations

Time (CST) Temp. Windchill Dew Point Humidity Pressure Visibility Wind Dir Wind Speed Gust Speed Precip Events Conditions
12:15 AM 21.2 °F 14.9 °F 15.8 °F 80% 30.13 in 10.0 mi NNW 4.6 mph - N/A   Clear
12:34 AM 19.4 °F 14.3 °F 14.0 °F 80% 30.13 in 10.0 mi North 3.5 mph - N/A   Clear
12:54 AM 17.6 °F 12.3 °F 12.2 °F 79% 30.12 in 10.0 mi North 3.5 mph - N/A   Clear
1:15 AM 17.6 °F 12.3 °F 12.2 °F 79% 30.12 in 10.0 mi North 3.5 mph - N/A   Clear
1:34 AM 17.6 °F 10.7 °F 12.2 °F 79% 30.12 in 10.0 mi NNW 4.6 mph - N/A   Clear
1:54 AM 17.6 °F 10.7 °F 14.0 °F 86% 30.11 in 10.0 mi North 4.6 mph - N/A   Clear
2:15 AM 17.6 °F - 14.0 °F 86% 30.11 in 10.0 mi Calm Calm - N/A   Clear
2:34 AM 19.4 °F - 15.8 °F 86% 30.11 in 10.0 mi Calm Calm - N/A   Clear
2:54 AM 15.8 °F - 10.4 °F 79% 30.11 in 10.0 mi Calm Calm - N/A   Clear
3:15 AM 15.8 °F - 12.2 °F 86% 30.11 in 10.0 mi Calm Calm - N/A   Clear
3:34 AM 15.8 °F - 12.2 °F 86% 30.11 in 10.0 mi Calm Calm - N/A   Clear
3:54 AM 15.8 °F - 12.2 °F 86% 30.11 in 10.0 mi Calm Calm - N/A   Clear
4:15 AM 15.8 °F - 10.4 °F 79% 30.11 in 10.0 mi Calm Calm - N/A   Clear
4:34 AM 15.8 °F - 10.4 °F 79% 30.10 in 10.0 mi Calm Calm - N/A   Scattered Clouds
4:54 AM 15.8 °F - 12.2 °F 86% 30.10 in 10.0 mi Calm Calm - N/A   Mostly Cloudy
5:15 AM 15.8 °F - 12.2 °F 86% 30.11 in 10.0 mi Calm Calm - N/A   Mostly Cloudy
5:34 AM 15.8 °F 10.2 °F 14.0 °F 93% 30.10 in 10.0 mi SSE 3.5 mph - N/A   Overcast
5:54 AM 17.6 °F - 14.0 °F 86% 30.10 in 10.0 mi Calm Calm - N/A   Mostly Cloudy
6:15 AM 15.8 °F 10.2 °F 12.2 °F 86% 30.10 in 10.0 mi South 3.5 mph - N/A   Clear
6:34 AM 15.8 °F 8.6 °F 12.2 °F 86% 30.10 in 10.0 mi SSE 4.6 mph - N/A   Mostly Cloudy
6:54 AM 15.8 °F 8.6 °F 12.2 °F 86% 30.10 in 10.0 mi SSE 4.6 mph - N/A   Scattered Clouds
7:15 AM 17.6 °F 12.3 °F 14.0 °F 86% 30.10 in 10.0 mi ESE 3.5 mph - N/A   Scattered Clouds
7:34 AM 15.8 °F 8.6 °F 12.2 °F 86% 30.11 in 10.0 mi SSE 4.6 mph - N/A   Scattered Clouds
7:54 AM 17.6 °F 12.3 °F 14.0 °F 86% 30.11 in 10.0 mi South 3.5 mph - N/A   Mostly Cloudy
8:15 AM 19.4 °F - 15.8 °F 86% 30.11 in 10.0 mi Calm Calm - N/A   Overcast
8:34 AM 19.4 °F - 17.6 °F 93% 30.12 in 10.0 mi Calm Calm - N/A   Overcast
8:54 AM 21.2 °F - 19.4 °F 93% 30.12 in 10.0 mi Calm Calm - N/A   Overcast
9:15 AM 23.0 °F 18.4 °F 19.4 °F 86% 30.12 in 10.0 mi SSE 3.5 mph - N/A   Overcast
9:34 AM 24.8 °F 20.5 °F 19.4 °F 80% 30.12 in 10.0 mi South 3.5 mph - N/A   Overcast
9:54 AM 24.8 °F - 19.4 °F 80% 30.12 in 10.0 mi Calm Calm - N/A   Overcast
10:15 AM 26.6 °F - 19.4 °F 74% 30.12 in 10.0 mi Calm Calm - N/A   Overcast
10:34 AM 26.6 °F - 19.4 °F 74% 30.12 in 10.0 mi Calm Calm - N/A   Overcast
10:54 AM 26.6 °F - 19.4 °F 74% 30.11 in 10.0 mi Calm Calm - N/A   Overcast
11:15 AM 28.4 °F - 19.4 °F 69% 30.11 in 10.0 mi Calm Calm - N/A   Overcast
11:34 AM 28.4 °F - 19.4 °F 69% 30.11 in 10.0 mi Calm Calm - N/A   Overcast
11:55 AM 30.2 °F - 19.4 °F 64% 30.11 in 10.0 mi Calm Calm - N/A   Overcast
12:14 PM 30.2 °F - 17.6 °F 60% 30.11 in 10.0 mi Calm Calm - N/A   Overcast
12:34 PM 30.2 °F - 17.6 °F 60% 30.10 in 10.0 mi Calm Calm - N/A   Unknown
12:55 PM 30.2 °F - 17.6 °F 60% 30.10 in 10.0 mi Calm Calm - N/A   Mostly Cloudy
1:14 PM 32.0 °F - 17.6 °F 55% 30.09 in 10.0 mi Calm Calm - N/A   Mostly Cloudy
1:34 PM 33.8 °F - 17.6 °F 52% 30.09 in 10.0 mi Calm Calm - N/A   Scattered Clouds
1:55 PM 32.0 °F - 17.6 °F 55% 30.10 in 10.0 mi Calm Calm - N/A   Mostly Cloudy
2:14 PM 33.8 °F - 17.6 °F 52% 30.09 in 10.0 mi Calm Calm - N/A   Scattered Clouds
2:34 PM 35.6 °F - 17.6 °F 48% 30.09 in 10.0 mi Calm Calm - N/A   Clear
2:55 PM 35.6 °F - 17.6 °F 48% 30.09 in 10.0 mi Calm Calm - N/A   Clear
3:14 PM 35.6 °F - 17.6 °F 48% 30.09 in 10.0 mi Calm Calm - N/A   Clear
3:34 PM 35.6 °F - 15.8 °F 44% 30.10 in 10.0 mi Calm Calm - N/A   Clear
3:55 PM 33.8 °F - 15.8 °F 48% 30.10 in 10.0 mi Calm Calm - N/A   Clear
4:14 PM 33.8 °F - 17.6 °F 52% 30.11 in 10.0 mi Calm Calm - N/A   Clear
4:34 PM 33.8 °F - 17.6 °F 52% 30.11 in 10.0 mi Calm Calm - N/A   Clear
4:55 PM 32.0 °F - 17.6 °F 55% 30.12 in 10.0 mi Calm Calm - N/A   Clear
5:14 PM 30.2 °F - 17.6 °F 60% 30.12 in 10.0 mi Calm Calm - N/A   Clear
5:35 PM 30.2 °F - 17.6 °F 60% 30.13 in 10.0 mi Calm Calm - N/A   Clear
5:54 PM 28.4 °F - 15.8 °F 59% 30.14 in 10.0 mi Calm Calm - N/A   Clear
6:14 PM 28.4 °F - 17.6 °F 64% 30.14 in 10.0 mi Calm Calm - N/A   Clear
6:35 PM 28.4 °F - 17.6 °F 64% 30.14 in 10.0 mi Calm Calm - N/A   Clear
6:54 PM 26.6 °F - 15.8 °F 64% 30.14 in 10.0 mi Calm Calm - N/A   Clear
7:14 PM 26.6 °F - 17.6 °F 69% 30.14 in 10.0 mi Calm Calm - N/A   Clear
7:35 PM 26.6 °F - 15.8 °F 64% 30.14 in 10.0 mi Calm Calm - N/A   Clear
7:54 PM 24.8 °F - 15.8 °F 69% 30.15 in 10.0 mi Calm Calm - N/A   Clear
8:14 PM 26.6 °F 22.6 °F 17.6 °F 69% 30.14 in 10.0 mi NE 3.5 mph - N/A   Clear
8:35 PM 24.8 °F 19.1 °F 15.8 °F 69% 30.14 in 10.0 mi ENE 4.6 mph - N/A   Clear
8:54 PM 24.8 °F 19.1 °F 17.6 °F 74% 30.14 in 10.0 mi ENE 4.6 mph - N/A   Clear
9:14 PM 24.8 °F 20.5 °F 15.8 °F 69% 30.15 in 10.0 mi ENE 3.5 mph - N/A   Clear
9:35 PM 24.8 °F 19.1 °F 15.8 °F 69% 30.15 in 10.0 mi ENE 4.6 mph - N/A   Clear
9:54 PM 24.8 °F 19.1 °F 15.8 °F 69% 30.15 in 10.0 mi ENE 4.6 mph - N/A   Clear
10:15 PM 24.8 °F - 15.8 °F 69% 30.16 in 10.0 mi Calm Calm - N/A   Clear
10:35 PM 19.4 °F - 14.0 °F 80% 30.16 in 10.0 mi Calm Calm - N/A   Scattered Clouds
10:54 PM 17.6 °F - 12.2 °F 79% 30.16 in 10.0 mi Calm Calm - N/A   Clear
11:15 PM 19.4 °F - 12.2 °F 74% 30.17 in 10.0 mi Calm Calm - N/A   Clear
11:34 PM 19.4 °F - 14.0 °F 80% 30.17 in 10.0 mi Calm Calm - N/A   Clear
11:54 PM 21.2 °F 16.4 °F 15.8 °F 80% 30.17 in 10.0 mi NE 3.5 mph - N/A   Clear